EW7034 Weather Reports


Display with metric or nautical units.
time (UTC)temp
F
wind
direction
speed
MPH
gust
MPH
rain 1hr
in
rain 24hr
in
rain mn
in
humidity
%
barometer
mb
20190124063230 0 0.0 0.0 0.00 0.00 0.00 1009.4
20190124061557 0 0.0 0.0 0.00 0.00 0.00 1009.4
20190124060108 0 0.0 0.0 0.00 0.00 0.00 1009.3
20190124054551 0 0.0 0.0 0.00 0.00 0.00 1009.5
20190124053105 0 0.0 0.0 0.00 0.00 0.00 1009.3
20190124051525 0 0.0 0.0 0.00 0.00 0.00 1009.1
20190124050121 41 343 0.0 0.0 0.00 0.00 0.00 97 1009.1
20190124044535 41 343 0.0 0.0 0.00 0.00 0.00 97 1009.2
20190124043014 41 343 0.0 1.0 0.00 0.00 0.00 97 1009.2
20190124041520 41 343 0.0 0.0 0.00 0.00 0.00 97 1009.0
20190124040033 41 343 0.0 3.0 0.00 0.00 0.00 97 1008.8
20190124034518 40 343 0.0 0.0 0.00 0.00 0.00 96 1009.0
20190124033011 41 343 0.0 1.0 0.00 0.00 0.00 97 1009.0
20190124031511 40 343 0.0 0.0 0.00 0.00 0.00 96 1009.0
20190124030041 40 343 0.0 0.0 0.00 0.00 0.00 96 1009.0
20190124024534 40 343 0.0 0.0 0.00 0.00 0.00 96 1008.7
20190124023006 41 343 0.0 0.0 0.00 0.00 0.00 96 1008.9
20190124021501 40 344 0.0 2.0 0.00 0.00 0.00 97 1009.0
20190124020329 40 344 0.0 0.0 0.00 0.00 0.00 97 1009.0
20190124014610 39 344 0.0 0.0 0.00 0.00 0.00 97 1008.8
20190124013205 38 344 0.0 0.0 0.00 0.00 0.00 95 1008.6
20190124011725 38 344 0.0 0.0 0.00 0.00 0.00 95 1008.6
20190124010141 38 344 0.0 0.0 0.00 0.00 0.00 94 1008.6
20190124004615 39 344 0.0 0.0 0.00 0.00 0.00 94 1008.4
20190124003155 39 344 0.0 2.0 0.00 0.00 0.00 96 1008.6
20190124001632 39 343 0.0 2.0 0.00 0.00 0.00 95 1008.4
20190124000142 38 344 0.0 0.0 0.00 0.00 0.00 95 1008.4
20190123234703 38 344 0.0 3.0 0.00 0.00 0.00 95 1008.7
20190123233118 38 342 0.0 1.0 0.00 0.00 0.00 94 1008.1
20190123231616 38 342 0.0 1.0 0.00 0.00 0.00 94 1008.0
20190123230059 38 342 0.0 2.0 0.00 0.00 0.00 94 1008.0
20190123224619 38 342 0.0 2.0 0.00 0.00 0.00 94 1008.3
20190123223104 38 341 0.0 2.0 0.00 0.00 0.00 93 1007.8
20190123221637 38 341 0.0 2.0 0.00 0.00 0.00 92 1007.6
20190123220059 38 341 0.0 3.0 0.00 0.00 0.00 92 1007.6
20190123214545 39 340 0.0 4.0 0.00 0.00 0.00 91 1007.6
20190123213052 39 335 0.0 1.0 0.00 0.00 0.00 91 1007.4
20190123211600 39 335 0.0 2.0 0.00 0.00 0.00 91 1007.4
20190123210108 39 335 0.0 2.0 0.00 0.00 0.00 91 1007.4
20190123204555 39 344 0.0 3.0 0.00 0.00 0.00 91 1007.3
20190123203128 39 342 0.0 4.0 0.00 0.00 0.00 91 1007.2
20190123201543 39 345 0.0 3.0 0.00 0.00 0.00 90 1007.1
20190123200123 39 26 0.0 3.0 0.00 0.00 0.00 91 1007.2
20190123194549 39 26 1.0 5.0 0.00 0.00 0.00 91 1006.8
20190123193106 39 5 0.0 3.0 0.00 0.00 0.00 92 1007.1
20190123191600 39 360 1.0 4.0 0.00 0.00 0.00 92 1007.1
20190123190036 39 5 0.0 3.0 0.00 0.00 0.00 92 1007.1
20190123184531 39 324 0.0 3.0 0.00 0.00 0.00 92 1006.9
20190123183027 39 325 0.0 2.0 0.00 0.00 0.00 92 1007.0
20190123181602 39 325 0.0 2.0 0.00 0.00 0.00 93 1006.9
20190123180110 39 325 0.0 1.0 0.00 0.00 0.00 92 1006.7
20190123174528 39 325 0.0 0.0 0.00 0.00 0.00 91 1006.6
20190123173114 39 325 0.0 0.0 0.00 0.00 0.00 91 1006.9
20190123171542 39 325 0.0 0.0 0.00 0.00 0.00 91 1006.7
20190123170050 39 325 0.0 2.0 0.00 0.00 0.00 91 1006.6
20190123164527 39 325 0.0 2.0 0.00 0.00 0.00 90 1006.5
20190123163027 39 324 0.0 3.0 0.00 0.00 0.00 91 1006.5
20190123161519 39 324 2.0 6.0 0.00 0.00 0.00 91 1006.5
20190123160027 39 327 0.0 3.0 0.00 0.00 0.00 91 1006.4
20190123154524 39 325 2.0 4.0 0.00 0.00 0.00 91 1006.3
20190123153020 39 330 0.0 3.0 0.00 0.00 0.00 91 1006.1
20190123151518 39 330 0.0 5.0 0.00 0.00 0.00 90 1006.1
20190123150016 39 327 0.0 5.0 0.00 0.00 0.00 90 1006.0
20190123144508 39 327 0.0 4.0 0.00 0.00 0.00 90 1005.8
20190123143008 39 338 0.0 3.0 0.00 0.00 0.00 90 1005.6
20190123141516 39 355 0.0 2.0 0.00 0.00 0.00 89 1005.7
20190123140027 39 339 0.0 4.0 0.00 0.00 0.00 90 1005.5
20190123134513 39 319 2.0 8.0 0.00 0.00 0.00 90 1005.5
20190123133004 39 360 2.0 6.0 0.00 0.00 0.00 89 1005.7
20190123131503 39 310 1.0 8.0 0.00 0.00 0.00 89 1005.9
20190123130009 39 336 1.0 6.0 0.00 0.00 0.00 89 1006.0
20190123124726 39 315 0.0 3.0 0.00 0.00 0.00 89 1005.9
20190123123210 39 337 0.0 5.0 0.00 0.00 0.00 88 1005.5
20190123121723 39 338 0.0 3.0 0.00 0.00 0.00 88 1005.5
20190123120139 38 339 0.0 3.0 0.00 0.00 0.00 88 1005.6
20190123114719 38 333 0.0 4.0 0.00 0.00 0.00 87 1005.5
20190123113147 39 333 1.0 4.0 0.00 0.00 0.00 87 1005.5
20190123111625 38 333 0.0 0.0 0.00 0.00 0.00 88 1005.4
20190123110258 38 334 0.0 3.0 0.00 0.00 0.00 87 1005.4
20190123104634 38 333 0.0 0.0 0.00 0.00 0.00 88 1005.6
20190123103155 37 330 1.0 5.0 0.00 0.00 0.00 88 1005.2
20190123101601 37 346 0.0 3.0 0.00 0.00 0.00 88 1005.1
20190123100140 37 346 0.0 3.0 0.00 0.00 0.00 89 1005.2
20190123094658 36 344 0.0 3.0 0.00 0.00 0.00 89 1005.0
20190123093127 36 344 0.0 0.0 0.00 0.00 0.00 90 1004.6
20190123091653 0 0.0 0.0 0.00 0.00 0.00 1004.9
20190123090054 0 0.0 0.0 0.00 0.00 0.00 1004.8
20190123084543 0 0.0 0.0 0.00 0.00 0.00 1004.7
20190123083043 0 0.0 0.0 0.00 0.00 0.00 1004.5
20190123081606 0 0.0 0.0 0.00 0.00 0.00 1004.1
20190123080019 0 0.0 0.0 0.00 0.00 0.00 1004.0
20190123074507 0 0.0 0.0 0.00 0.00 0.00 1003.8
20190123073003 0 0.0 0.0 0.00 0.00 0.00 1003.7
20190123071634 0 0.0 0.0 0.00 0.00 0.00 1003.6
20190123070120 0 0.0 0.0 0.00 0.00 0.00 1003.3
20190123064722 0 0.0 0.0 0.00 0.00 0.00 1003.1